This is the latest recevied weather packets stored in our database for station/object W1LBM. If no packets are shown the sender has not sent any weather packets the latest 10 day(s).
| Time | Temp. | Humidity | Pressure | Rain* | Wind** | Luminosity | Snow |
|---|---|---|---|---|---|---|---|
| 1777985395 | 17.22° C | 71% | 1014.4 hPa | 0 mm | - | 98 W/m² | - |
| 1777985091 | 17.22° C | 70% | 1014.5 hPa | 0 mm | - | 142 W/m² | - |
| 1777984788 | 16.67° C | 72% | 1014.4 hPa | 0 mm | - | 159 W/m² | - |
| 1777984484 | 16.11° C | 73% | 1014.2 hPa | 0 mm | - | 193 W/m² | - |
| 1777984180 | 15.56° C | 75% | 1014.2 hPa | 0 mm | - | 187 W/m² | - |
| 1777983878 | 15° C | 77% | 1014.3 hPa | 0 mm | - | 121 W/m² | - |
| 1777983574 | 15° C | 78% | 1014.2 hPa | 0 mm | - | 81 W/m² | - |
| 1777983272 | 14.44° C | 80% | 1014.1 hPa | 0 mm | - | 68 W/m² | - |
| 1777982967 | 13.89° C | 81% | 1014.2 hPa | 0 mm | - | 72 W/m² | - |
| 1777982664 | 13.89° C | 81% | 1014.2 hPa | 0 mm | - | 83 W/m² | - |
| 1777982363 | 13.89° C | 81% | 1014.3 hPa | 0 mm | - | 84 W/m² | - |
| 1777982060 | 13.89° C | 82% | 1014.2 hPa | 0 mm | - | 66 W/m² | - |
| 1777981758 | 13.33° C | 83% | 1014.1 hPa | 0 mm | - | 126 W/m² | - |
| 1777981454 | 13.33° C | 83% | 1014 hPa | 0 mm | - | 99 W/m² | - |
| 1777981150 | 12.78° C | 84% | 1014.1 hPa | 0 mm | - | 64 W/m² | - |
| 1777980847 | 12.78° C | 85% | 1014.2 hPa | 0 mm | - | 100 W/m² | - |
| 1777980543 | 12.78° C | 86% | 1014.2 hPa | 0 mm | - | 63 W/m² | - |
| 1777980241 | 12.22° C | 87% | 1014.2 hPa | 0 mm | - | 68 W/m² | - |
| 1777979936 | 12.22° C | 87% | 1014.1 hPa | 0 mm | - | 72 W/m² | - |
| 1777979631 | 12.22° C | 88% | 1013.8 hPa | 0 mm | - | 102 W/m² | - |
| 1777979328 | 11.67° C | 88% | 1013.9 hPa | 0 mm | - | 69 W/m² | - |
| 1777979025 | 11.67° C | 89% | 1013.9 hPa | 0 mm | - | 82 W/m² | - |
| 1777978721 | 11.67° C | 89% | 1014 hPa | 0 mm | - | 106 W/m² | - |
| 1777978418 | 11.67° C | 90% | 1014 hPa | 0 mm | - | 96 W/m² | - |
| 1777978114 | 11.11° C | 91% | 1013.8 hPa | 0 mm | - | 80 W/m² | - |
* Rain latest hour (hover to see other rain measurements)
** Current wind speed in m/s (hover to see current wind gust speed)